Terminal Aerodrome Forecast
Issued by NWS

Home | Current Version | Previous Version | Graphics & Text | Print | Product List | Glossary On
Versions: 1 2 3 4 5 6 7 8 9 10 11 12 13 14
000
FTUS43 KMPX 221738
TAFRWF
TAF
KRWF 221738Z 2218/2318 23013G19KT P6SM OVC008
      TEMPO 2218/2219 SCT008
     FM221900 22014G20KT P6SM SCT010 SCT100
     FM230800 21016G20KT P6SM OVC120
     FM231300 21012G17KT P6SM OVC060=

USA.gov is the U.S. government's official web portal to all federal, state and local government web resources and services.